Location: PSU-Greenbush Astrophysical Observatory
(37.5140°N, 94.9880°W)
Time: 23:30:31
(UTC-06:00)

Altair - Pass Details

Date: 28 January 2020
Orbit: 1502 x 1682 km, 47.2° (Epoch: 17 February)

Event Time Altitude Azimuth Distance (km) Brightness Sun altitude
Rises 16:48:15 0° 290° (WNW) 4,913 10.8 8.2°
Reaches altitude 10° 16:53:10 10° 270° (W) 3,897 10.9 7.4°
Maximum altitude 16:58:21 16° 238° (WSW) 3,430 11.8 6.5°
Drops below altitude 10° 17:03:27 10° 206° (SSW) 3,819 10.6 5.6°
Sets 17:08:15 0° 185° (S) 4,762 10.6 4.7°
